FW9978 Weather Reports


time (UTC)temp
C
wind
direction
speed
KPH
gust
KPH
rain 1hr
cm
rain 24hr
cm
rain mn
cm
humidity
%
barometer
mb
20260505170008 23 226 11.3 20.9 0.00 0.00 0.00 88 1006.3
20260505164503 23 242 14.5 29.0 0.00 0.00 0.00 88 1006.3
20260505163004 23 215 9.7 27.4 0.00 0.00 0.00 88 1006.2
20260505161529 22 248 11.3 32.2 0.00 0.00 0.00 88 1006.3
20260505153033 22 117 9.7 25.7 0.00 0.00 0.00 88 1006.4
20260505151535 22 123 9.7 20.9 0.00 0.00 0.00 88 1006.2
20260505124542 21 129 4.8 16.1 0.00 0.00 0.00 87 1005.5
20260505123012 21 130 8.0 24.1 0.00 0.00 0.00 87 1005.5
20260505121613 21 135 6.4 22.5 0.00 0.00 0.00 87 1005.1
20260505114553 21 98 6.4 16.1 0.00 0.00 0.00 86 1005.2
20260505113104 21 123 6.4 22.5 0.00 0.00 0.00 86 1005.1
20260505111514 21 107 6.4 14.5 0.00 0.00 0.00 86 1005.0
20260505110124 21 119 8.0 19.3 0.00 0.00 0.00 86 1005.0
20260505101522 21 239 11.3 24.1 0.00 0.00 0.00 86 1005.0
20260505100008 21 233 9.7 17.7 0.00 0.00 0.00 86 1005.1
20260505094507 21 209 9.7 19.3 0.00 0.00 0.00 86 1004.8
20260505093029 21 261 8.0 17.7 0.00 0.00 0.00 86 1004.9
20260505091517 21 215 8.0 19.3 0.00 0.00 0.00 85 1004.8
20260505090124 21 242 3.2 20.9 0.00 0.00 0.00 85 1005.0
20260505084524 21 252 4.8 17.7 0.00 0.00 0.00 85 1005.1
20260505083039 21 222 4.8 17.7 0.00 0.00 0.00 84 1005.6
20260505081547 21 275 6.4 20.9 0.00 0.00 0.00 84 1005.9
20260505080053 21 253 4.8 16.1 0.00 0.00 0.00 83 1006.1
20260505074540 21 198 8.0 16.1 0.00 0.00 0.00 83 1006.2
20260505073053 21 229 6.4 24.1 0.00 0.00 0.00 83 1006.4
20260505071550 21 266 4.8 16.1 0.00 0.00 0.00 83 1006.7
20260505070059 21 224 6.4 19.3 0.00 0.00 0.00 83 1006.8
20260505064604 21 214 6.4 17.7 0.00 0.00 0.00 83 1007.1
20260505063112 21 90 4.8 16.1 0.00 0.00 0.00 82 1007.1
20260505061507 21 182 3.2 14.5 0.00 0.00 0.00 81 1007.2
20260505060129 21 286 4.8 14.5 0.00 0.00 0.00 81 1007.0
20260505054621 21 225 3.2 12.9 0.00 0.00 0.00 80 1007.2
20260505053006 21 255 4.8 16.1 0.00 0.00 0.00 80 1007.1
20260505051539 21 310 1.6 14.5 0.00 0.00 0.00 79 1007.1
20260505050138 21 242 3.2 16.1 0.00 0.00 0.00 79 1006.9
20260505041547 22 172 4.8 9.7 0.00 0.00 0.00 78 1006.9
20260505040017 22 180 1.6 8.0 0.00 0.00 0.00 77 1007.1
20260505034511 22 109 4.8 14.5 0.00 0.00 0.00 77 1007.1
20260505033039 22 246 3.2 12.9 0.00 0.00 0.00 76 1007.1
20260505031528 22 202 3.2 11.3 0.00 0.00 0.00 76 1007.1
20260505030055 22 175 3.2 11.3 0.00 0.00 0.00 75 1007.0
20260505024523 22 112 4.8 14.5 0.00 0.00 0.00 75 1006.9
20260505023038 22 159 4.8 14.5 0.00 0.00 0.00 74 1006.8
20260505021556 22 138 3.2 8.0 0.00 0.00 0.00 73 1006.8
20260505020056 22 146 1.6 14.5 0.00 0.00 0.00 73 1006.4
20260505014538 23 191 0.0 9.7 0.00 0.00 0.00 72 1006.5
20260505013047 23 191 1.6 6.4 0.00 0.00 0.00 71 1006.6
20260505011558 23 144 0.0 6.4 0.00 0.00 0.00 71 1006.4
20260505010015 23 213 1.6 8.0 0.00 0.00 0.00 70 1006.6
20260505004536 24 192 6.4 14.5 0.00 0.00 0.00 70 1006.5
20260505003046 25 198 3.2 11.3 0.00 0.00 0.00 69 1006.6
20260505001546 25 121 1.6 14.5 0.00 0.00 0.00 68 1006.6
20260504234534 25 212 3.2 12.9 0.00 0.00 0.00 67 1006.9
20260504233052 26 171 3.2 12.9 0.00 0.00 0.00 67 1007.2
20260504231552 26 215 6.4 16.1 0.00 0.00 0.00 67 1007.4
20260504230113 26 227 6.4 17.7 0.00 0.00 0.00 66 1007.4
20260504224545 26 184 4.8 14.5 0.00 0.00 0.00 66 1007.4
20260504223048 26 240 6.4 19.3 0.00 0.00 0.00 65 1007.7
20260504221550 26 195 4.8 17.7 0.00 0.00 0.00 65 1007.7
20260504220104 26 219 8.0 24.1 0.00 0.00 0.00 65 1007.8
20260504214548 26 217 6.4 20.9 0.00 0.00 0.00 64 1007.9
20260504213045 26 130 6.4 22.5 0.00 0.00 0.00 64 1008.1
20260504211542 26 205 6.4 14.5 0.00 0.00 0.00 64 1008.5
20260504210056 26 146 8.0 24.1 0.00 0.00 0.00 64 1008.7
20260504204512 26 169 11.3 20.9 0.00 0.00 0.00 64 1009.2
20260504203043 26 185 4.8 12.9 0.00 0.00 0.00 64 1009.6
20260504201546 26 128 6.4 17.7 0.00 0.00 0.00 63 1009.6
20260504200050 26 152 8.0 19.3 0.00 0.00 0.00 63 1009.9
20260504194512 26 161 8.0 29.0 0.00 0.00 0.00 62 1010.2
20260504193022 26 202 9.7 17.7 0.00 0.00 0.00 62 1010.7
20260504191557 26 138 4.8 22.5 0.00 0.00 0.00 63 1010.7
20260504190022 26 239 4.8 19.3 0.00 0.00 0.00 63 1010.8
20260504184540 25 322 4.8 22.5 0.00 0.00 0.00 63 1011.0
20260504183046 25 246 14.5 25.7 0.00 0.00 0.00 62 1011.1
20260504181552 25 259 6.4 19.3 0.00 0.00 0.00 65 1011.4
20260504180057 24 171 8.0 30.6 0.00 0.00 0.00 65 1011.6
20260504174535 24 233 8.0 19.3 0.00 0.00 0.00 66 1012.1
20260504173037 23 248 8.0 20.9 0.00 0.00 0.00 66 1012.1
20260504171517 23 300 6.4 17.7 0.00 0.00 0.00 66 1012.3